Temp
70 70 71 71 73 73 73 73 73 73 76 76 75 75 75 75 74 74 73 72 72 71 70 69 68 70 70 71 71 69 67 65 66 65 64 63 62 63 64 65 65 68 67 66 65 62 61 58 60 67 68 66 66 67 68 69 69 68 67 69 70 70 68
72 72 72 73 72 72 72 72 72 75 74 74 75 74 74 75 74 73 74 73 72 73 75 74 72 74 72 70 69 69 69 69 69 66 65 64 66 63 63 63 66 65 65 66 65 63 61 60 59 60 60 65 64 65 66 67 67 67 68 69 71 70 67
72 72 72 71 71 72 70 71 71 71 72 72 73 74 75 76 75 75 74 73 72 73 73 74 73 72 71 71 70 70 70 69 68 68 65 66 66 66 66 64 62 64 63 61 61 61 63 65 60 61 60 59 58 62 65 64 67 67 70 69 69 70 67
71 71 69 70 70 71 70 70 70 71 72 71 72 72 72 74 72 73 73 73 72 72 72 73 71 71 69 69 71 71 70 69 68 68 68 69 67 66 66 63 63 64 61 59 60 61 62 61 62 61 64 66 62 59 63 67 69 71 71 68 68 68 67
72 71 70 70 71 71 70 70 70 70 71 71 71 70 71 72 72 72 72 72 71 71 72 72 72 71 70 70 70 70 70 69 70 69 68 67 67 65 66 66 66 65 64 64 65 64 63 63 63 62 63 66 66 64 70 66 71 70 69 70 71 69 68
72 72 71 70 72 70 70 70 70 69 70 70 70 70 70 72 71 71 71 71 70 70 71 71 71 72 71 69 69 69 69 68 67 67 66 66 68 66 66 67 69 69 67 68 69 68 67 67 65 62 67 67 60 62 67 67 65 69 70 69 71 69 70
71 71 71 71 72 71 71 70 71 70 70 70 70 69 71 73 71 71 71 71 71 71 71 71 71 71 71 69 68 68 68 68 68 67 67 67 68 69 68 66 67 67 67 68 67 69 67 67 65 63 62 63 64 65 68 68 69 67 67 70 70 70 68
71 71 72 72 72 71 71 71 71 71 70 70 70 70 71 71 71 71 71 70 71 70 71 71 72 70 69 71 71 69 69 69 69 68 67 67 67 68 67 66 66 66 66 66 66 67 70 66 68 65 63 60 60 61 62 68 67 66 66 68 71 69 68
72 72 71 71 71 71 71 71 71 70 70 69 70 70 71 70 70 70 71 70 71 71 71 72 71 70 69 68 68 68 68 72 67 67 66 66 66 66 66 67 66 66 67 68 69 67 67 69 67 67 65 63 58 57 59 58 61 64 70 66 68 70 68
72 71 70 70 70 71 71 71 70 70 69 69 69 70 69 70 70 69 69 69 70 70 70 70 70 69 69 68 68 67 66 67 67 67 66 65 66 66 66 66 66 66 66 67 67 67 67 67 68 66 69 65 64 58 57 55 57 58 64 68 64 65 69
72 71 70 70 70 69 69 69 69 69 69 69 70 70 69 69 69 70 68 68 68 70 70 70 70 69 68 68 68 67 67 66 66 66 66 66 67 67 67 67 67 65 67 66 67 66 66 67 65 68 66 67 64 61 61 58 56 60 60 64 66 65 67
72 71 71 70 70 69 68 68 69 68 69 68 69 68 67 68 68 68 68 68 69 68 68 68 69 67 67 66 66 66 66 66 65 64 66 66 67 67 66 65 65 65 67 66 66 67 66 67 68 67 65 66 65 64 63 61 55 58 62 59 63 69 66
73 72 70 69 69 69 69 69 69 68 68 69 68 68 68 68 68 67 68 68 68 67 68 69 68 67 66 66 66 68 66 66 67 65 66 67 72 68 66 65 65 66 67 67 67 67 66 66 67 66 66 66 65 64 64 61 58 56 60 61 62 65 68
71 71 70 70 69 68 68 68 68 68 69 67 68 68 69 68 69 68 68 68 68 68 68 68 68 67 67 66 67 66 67 68 68 66 66 66 69 68 68 67 66 67 67 65 67 66 68 69 67 67 66 65 65 65 63 62 59 57 61 63 63 64 66
71 71 69 69 68 69 68 68 68 68 68 68 69 70 70 69 68 69 69 69 68 68 69 68 69 68 67 66 66 69 68 68 67 67 66 66 66 69 66 65 67 65 68 67 65 71 70 69 70 70 69 67 65 65 65 64 61 58 56 61 62 66 63
71 70 69 68 68 69 68 68 69 67 68 68 69 69 70 69 70 69 69 69 69 68 69 68 69 67 66 67 68 69 67 66 65 65 66 66 69 68 66 64 64 66 68 65 67 66 67 69 71 71 67 67 65 65 67 66 62 60 58 58 61 63 62
70 70 68 68 68 69 69 69 70 69 70 69 70 69 70 71 70 69 69 69 69 68 68 69 69 69 69 68 69 68 67 66 67 67 66 67 69 67 65 64 64 66 66 65 65 65 65 66 66 67 66 65 64 66 65 63 65 63 60 59 61 65 64
69 69 68 68 68 69 70 70 70 71 70 69 70 70 70 71 70 70 69 70 70 69 69 69 68 68 68 69 69 67 67 67 67 67 67 67 68 66 66 64 66 66 67 65 64 64 66 65 68 66 66 67 67 66 65 63 64 64 61 59 60 62 63
69 69 69 69 69 69 70 70 70 70 72 70 69 70 69 70 72 71 71 71 71 71 71 69 70 69 69 68 68 68 67 67 68 68 68 68 68 67 66 67 67 66 67 66 64 64 63 65 66 65 66 66 68 65 62 63 63 62 62 62 62 61 62
69 69 69 69 69 70 70 71 71 71 71 70 69 69 70 69 69 71 71 71 71 71 71 71 69 69 70 70 68 68 67 67 69 67 68 68 68 67 69 69 68 67 67 67 66 65 65 65 64 63 63 63 66 63 63 63 64 62 61 60 61 61 61
70 70 70 70 70 70 70 70 70 70 71 70 69 70 70 70 69 70 70 70 70 70 70 70 70 70 70 68 67 68 67 66 67 67 67 68 68 67 66 66 66 66 65 63 63 63 63 62 64 64 63 63 62 62 61 61 61 61 60 60 60 60 59
71 70 70 71 70 70 70 70 70 70 70 70 70 71 71 70 69 69 70 70 71 70 70 69 71 70 68 69 69 66 67 68 66 66 68 67 63 62 62 63 65 63 61 59 54 56 56 58 61 60 62 64 63 61 60 60 60 58 58 59 58 60 59
71 70 70 70 70 70 70 70 70 70 70 70 71 70 71 70 70 70 70 69 69 69 69 69 67 62 63 69 68 69 67 67 66 66 66 64 62 62 62 62 63 58 57 58 57 52 51 49 51 58 58 59 60 60 60 60 60 60 59 57 56 57 58
69 68 69 68 68 69 70 69 69 70 70 70 70 69 70 69 69 70 70 69 67 68 68 68 53 55 55 58 68 66 65 64 64 63 63 64 62 61 61 61 62 61 60 60 59 52 50 48 47 48 48 48 52 57 58 58 58 58 58 57 57 57 55
68 66 67 68 67 68 68 67 67 67 67 68 69 69 68 68 68 68 67 68 67 67 67 52 46 49 52 55 60 67 66 65 64 63 63 63 64 62 62 61 60 62 61 61 62 61 53 46 44 42 42 44 43 41 46 54 57 56 54 54 55 55 55
67 66 66 66 66 65 65 65 65 65 64 66 67 67 67 67 66 67 66 66 66 66 64 45 47 48 49 50 52 60 68 66 63 63 63 63 63 63 61 60 60 60 64 60 60 62 60 51 43 41 41 43 43 45 46 46 48 54 57 55 54 54 53
68 68 67 65 66 66 64 64 65 63 64 65 65 65 66 65 65 65 65 66 63 58 58 50 44 46 47 49 47 55 66 64 63 63 63 63 62 62 61 60 59 59 61 61 61 62 60 56 52 52 51 53 52 46 42 43 47 48 53 56 55 55 55
67 67 67 65 66 66 63 64 65 64 64 64 65 65 65 64 63 62 63 63 59 58 60 50 44 44 44 45 43 49 62 64 63 62 63 63 63 62 62 62 61 61 61 61 60 58 60 58 57 56 55 55 54 54 53 52 51 53 56 58 57 55 53
67 68 69 68 67 67 66 66 66 66 65 65 65 65 64 64 62 62 63 62 59 59 59 49 45 43 43 43 43 55 59 61 61 62 62 62 62 63 63 62 60 61 61 59 48 44 49 58 59 58 57 56 54 50 47 45 41 44 48 51 51 51 49
64 65 66 66 66 66 67 67 66 67 65 65 64 63 63 63 64 63 62 61 60 59 60 52 46 45 44 43 45 57 59 60 61 61 61 60 61 61 60 61 61 59 56 55 45 45 44 51 60 58 57 55 54 52 49 48 43 40 41 40 40 40 39
64 64 64 64 64 63 64 65 66 67 65 64 63 63 62 62 63 63 62 62 61 60 61 54 46 46 45 43 48 58 59 60 60 60 58 58 58 56 54 49 55 58 56 53 41 41 43 54 59 58 57 55 54 51 49 50 51 46 40 40 39 40 42
63 63 63 63 63 63 63 63 64 65 65 65 64 66 65 63 62 62 62 61 57 59 61 55 43 44 44 43 47 57 60 60 59 60 58 58 58 57 53 49 49 54 53 46 38 40 43 51 58 58 57 56 54 52 50 51 50 47 48 48 46 46 45
62 62 62 61 61 62 63 63 63 63 64 66 66 66 66 66 64 62 62 61 60 60 59 60 56 45 44 44 44 55 59 59 58 58 59 59 57 55 52 50 45 41 40 40 40 40 41 45 56 58 58 56 53 52 54 53 52 51 51 51 50 49 48
60 61 62 61 61 61 62 62 62 63 63 64 64 64 64 64 64 63 63 59 60 61 61 60 58 49 45 43 43 47 56 57 58 56 55 56 57 54 52 48 45 41 40 40 40 41 43 44 46 52 51 49 49 47 51 52 48 49 52 51 50 51 51
59 59 60 60 59 60 61 62 62 62 63 63 62 62 62 63 64 64 64 63 61 59 58 56 61 50 45 43 42 42 54 55 54 54 52 52 52 51 49 47 44 41 39 40 41 41 42 43 44 49 45 40 37 41 51 52 52 50 51 51 49 49 50
57 59 59 59 59 58 60 60 60 61 61 61 61 61 61 62 62 62 63 62 61 60 60 56 51 52 44 43 41 42 45 49 46 53 51 50 50 51 47 46 44 40 39 40 41 42 42 43 44 44 39 39 39 40 45 53 51 52 51 51 50 49 48
57 57 57 57 57 57 58 59 60 60 61 60 60 60 62 62 62 62 62 61 61 61 60 59 51 48 46 41 40 42 41 42 45 52 52 50 52 49 46 45 43 39 39 40 40 41 42 43 43 39 39 38 41 43 47 50 50 51 47 49 48 48 48
MSLP
1015.71 1015.86 1015.78 1015.78 1015.71 1015.83 1016.07 1016.15 1016.18 1016.30 1016.30 1016.51 1016.66 1016.74 1016.74 1016.91 1016.98 1017.03 1017.03 1017.10 1017.30 1017.34 1017.54 1017.83 1017.98 1017.98 1018.22 1018.34 1018.42 1019.03 1019.34 1019.91 1020.18 1020.39 1020.51 1020.27 1020.62 1020.54 1020.39 1020.51 1020.42 1020.07 1020.15 1020.51 1020.71 1021.42 1021.78 1022.59 1022.66 1021.91 1021.78 1021.78 1021.71 1021.66 1021.66 1021.71 1021.62 1021.51 1021.59 1021.78 1021.86 1021.98 1022.18
1015.22 1015.39 1015.47 1015.62 1015.91 1015.91 1016.22 1016.22 1016.27 1016.34 1016.51 1016.59 1016.62 1016.78 1016.83 1016.86 1016.95 1017.07 1017.03 1017.07 1017.07 1017.07 1016.98 1017.15 1017.34 1017.51 1017.74 1018.22 1018.42 1018.62 1018.95 1019.15 1019.22 1019.54 1019.83 1020.07 1020.03 1020.34 1020.59 1020.66 1020.47 1020.54 1020.51 1020.74 1020.95 1021.10 1021.59 1022.30 1022.83 1022.86 1022.95 1022.30 1022.15 1022.10 1022.03 1021.86 1021.71 1021.54 1021.54 1021.59 1021.66 1022.03 1022.34
1014.95 1015.18 1015.47 1015.86 1015.98 1016.03 1016.39 1016.39 1016.39 1016.54 1016.71 1016.83 1016.74 1016.71 1016.74 1016.78 1016.95 1016.95 1017.07 1017.22 1017.22 1017.22 1017.22 1017.18 1017.39 1017.71 1017.95 1018.27 1018.42 1018.51 1018.62 1018.98 1019.07 1019.30 1019.51 1019.74 1019.83 1020.18 1020.27 1020.51 1020.78 1020.78 1021.03 1021.27 1021.39 1021.34 1021.42 1021.39 1022.51 1022.98 1022.95 1023.07 1023.22 1022.62 1022.03 1022.07 1021.91 1021.83 1021.74 1021.78 1021.95 1022.30 1022.62
1014.98 1015.30 1015.71 1015.91 1015.95 1016.07 1016.34 1016.42 1016.47 1016.59 1016.66 1016.91 1016.95 1016.91 1016.91 1016.95 1017.15 1017.18 1017.22 1017.27 1017.39 1017.39 1017.34 1017.47 1017.71 1018.07 1018.18 1018.34 1018.30 1018.47 1018.66 1018.95 1019.10 1019.18 1019.39 1019.42 1020.07 1020.42 1020.34 1020.39 1020.59 1020.71 1020.95 1021.22 1021.27 1021.30 1021.47 1021.66 1021.91 1022.42 1022.42 1022.54 1022.74 1022.83 1022.27 1021.86 1021.86 1021.86 1021.91 1021.98 1022.18 1022.39 1022.66
1014.91 1015.22 1015.59 1015.86 1015.95 1016.10 1016.27 1016.42 1016.47 1016.66 1016.86 1016.98 1017.03 1017.15 1017.22 1017.18 1017.27 1017.34 1017.22 1017.30 1017.51 1017.59 1017.66 1017.62 1017.74 1017.98 1018.18 1018.30 1018.42 1018.62 1018.83 1018.95 1019.03 1019.18 1019.39 1019.66 1019.83 1019.98 1020.18 1020.18 1020.18 1020.18 1020.34 1020.66 1020.62 1020.71 1021.10 1020.98 1021.18 1021.86 1022.10 1022.22 1022.34 1022.27 1021.91 1021.78 1021.71 1021.86 1021.98 1022.10 1022.22 1022.42 1022.66
1014.86 1015.10 1015.39 1015.71 1015.74 1015.98 1016.10 1016.30 1016.54 1016.83 1016.98 1017.18 1017.22 1017.34 1017.42 1017.34 1017.39 1017.47 1017.47 1017.62 1017.78 1017.78 1017.83 1017.86 1017.95 1017.95 1018.18 1018.47 1018.71 1018.91 1019.03 1019.27 1019.39 1019.62 1019.71 1019.74 1019.71 1019.86 1019.95 1019.83 1019.86 1019.98 1020.18 1020.07 1020.10 1020.34 1020.39 1020.22 1020.42 1021.22 1021.47 1021.59 1022.39 1022.42 1022.15 1021.95 1022.22 1021.98 1021.98 1022.15 1022.18 1022.39 1022.62
1014.98 1015.07 1015.30 1015.54 1015.66 1015.78 1015.95 1016.27 1016.47 1016.66 1016.91 1017.15 1017.30 1017.42 1017.30 1017.27 1017.34 1017.47 1017.59 1017.66 1017.78 1017.91 1017.95 1017.98 1018.07 1018.15 1018.42 1018.74 1018.86 1019.10 1019.18 1019.22 1019.34 1019.51 1019.59 1019.66 1019.66 1019.62 1019.62 1019.78 1019.71 1019.59 1019.47 1019.34 1019.30 1019.39 1019.66 1019.95 1020.39 1020.83 1021.22 1021.54 1021.71 1022.10 1021.86 1021.91 1022.07 1022.42 1022.47 1022.27 1022.39 1022.59 1022.74
1014.91 1015.03 1015.18 1015.30 1015.51 1015.74 1015.95 1016.22 1016.39 1016.54 1016.83 1017.03 1017.22 1017.30 1017.27 1017.39 1017.51 1017.59 1017.71 1017.86 1017.91 1018.03 1018.10 1018.18 1018.22 1018.34 1018.47 1018.62 1018.78 1018.95 1019.07 1019.15 1019.30 1019.47 1019.62 1019.66 1019.71 1019.62 1019.62 1019.66 1019.62 1019.54 1019.54 1019.39 1019.54 1019.71 1019.39 1019.54 1019.95 1020.42 1020.86 1021.78 1021.91 1021.71 1021.91 1021.86 1022.10 1022.42 1022.71 1022.54 1022.51 1022.83 1022.98
1014.78 1014.86 1015.10 1015.27 1015.39 1015.59 1015.91 1016.15 1016.39 1016.59 1016.78 1017.03 1017.15 1017.30 1017.39 1017.47 1017.66 1017.83 1017.86 1017.98 1017.98 1018.07 1018.10 1018.18 1018.30 1018.51 1018.62 1018.83 1018.95 1019.07 1019.22 1019.15 1019.47 1019.66 1019.78 1019.74 1019.78 1019.74 1019.78 1019.74 1019.83 1019.98 1019.86 1019.74 1019.62 1019.66 1019.71 1019.47 1019.62 1019.95 1020.34 1020.78 1021.59 1022.42 1022.10 1022.42 1022.42 1022.62 1022.27 1022.91 1022.78 1022.78 1023.07
1014.83 1015.07 1015.30 1015.47 1015.62 1015.74 1015.95 1016.15 1016.39 1016.62 1016.83 1017.03 1017.27 1017.30 1017.47 1017.51 1017.54 1017.71 1017.95 1018.07 1018.10 1018.10 1018.18 1018.30 1018.42 1018.59 1018.74 1018.86 1019.07 1019.22 1019.39 1019.39 1019.51 1019.74 1019.78 1019.86 1019.86 1019.83 1019.86 1019.91 1020.03 1020.10 1020.07 1019.91 1019.83 1019.83 1019.71 1019.62 1019.62 1019.98 1020.18 1020.51 1021.07 1021.83 1022.39 1022.91 1022.91 1022.86 1022.71 1022.47 1023.18 1023.15 1022.86
1014.78 1015.03 1015.30 1015.62 1015.83 1016.10 1016.30 1016.34 1016.47 1016.78 1017.03 1017.15 1017.18 1017.34 1017.47 1017.59 1017.66 1017.83 1018.03 1018.15 1018.18 1018.22 1018.34 1018.39 1018.51 1018.71 1018.83 1018.98 1019.10 1019.27 1019.34 1019.47 1019.62 1019.71 1019.78 1019.83 1019.91 1019.91 1020.03 1020.15 1020.22 1020.34 1020.22 1020.15 1020.15 1019.95 1019.86 1019.91 1019.98 1020.10 1020.51 1020.59 1020.66 1021.51 1021.66 1022.71 1023.18 1022.78 1022.98 1022.66 1022.66 1023.07 1022.91
1014.83 1015.10 1015.42 1015.66 1015.95 1016.30 1016.54 1016.62 1016.71 1016.86 1017.03 1017.15 1017.27 1017.42 1017.59 1017.66 1017.74 1017.86 1018.03 1018.18 1018.27 1018.34 1018.39 1018.54 1018.59 1018.74 1018.91 1019.15 1019.27 1019.39 1019.42 1019.54 1019.78 1019.95 1019.91 1019.95 1019.98 1020.03 1020.22 1020.42 1020.39 1020.42 1020.30 1020.30 1020.27 1020.22 1020.18 1020.18 1020.10 1020.27 1020.47 1020.54 1020.71 1021.10 1021.62 1022.18 1023.27 1023.18 1022.66 1023.30 1022.95 1022.78 1022.95
1014.95 1015.30 1015.59 1015.83 1016.15 1016.39 1016.51 1016.66 1016.78 1016.98 1017.15 1017.18 1017.27 1017.42 1017.54 1017.62 1017.74 1017.95 1018.07 1018.22 1018.39 1018.47 1018.62 1018.62 1018.66 1018.83 1018.95 1019.15 1019.27 1019.47 1019.54 1019.66 1019.91 1020.07 1020.07 1019.98 1020.03 1020.15 1020.30 1020.47 1020.47 1020.47 1020.34 1020.39 1020.47 1020.47 1020.47 1020.34 1020.34 1020.42 1020.59 1020.78 1020.91 1020.98 1021.47 1022.27 1022.98 1023.51 1022.91 1022.91 1022.98 1022.91 1022.91
1015.22 1015.42 1015.71 1015.91 1016.18 1016.34 1016.51 1016.66 1016.83 1016.98 1017.10 1017.27 1017.27 1017.42 1017.51 1017.59 1017.71 1017.83 1018.03 1018.22 1018.39 1018.54 1018.66 1018.78 1018.78 1018.86 1018.98 1019.10 1019.22 1019.39 1019.47 1019.62 1019.83 1019.95 1019.98 1020.10 1020.07 1020.18 1020.39 1020.54 1020.51 1020.39 1020.34 1020.54 1020.59 1020.62 1020.54 1020.54 1020.47 1020.54 1020.59 1020.78 1021.03 1021.15 1021.54 1022.18 1022.83 1023.22 1022.98 1022.54 1022.66 1022.91 1022.91
1015.27 1015.51 1015.78 1016.03 1016.27 1016.42 1016.62 1016.74 1016.86 1016.98 1017.18 1017.18 1017.22 1017.34 1017.42 1017.51 1017.62 1017.74 1017.95 1018.15 1018.34 1018.54 1018.66 1018.78 1018.86 1018.91 1019.07 1019.22 1019.27 1019.22 1019.39 1019.54 1019.74 1019.95 1019.98 1020.15 1020.22 1020.30 1020.47 1020.66 1020.74 1020.66 1020.51 1020.66 1020.83 1020.74 1020.66 1020.59 1020.66 1020.74 1020.74 1020.95 1021.15 1021.22 1021.18 1021.83 1022.34 1022.86 1023.27 1022.91 1022.74 1022.62 1022.86
1015.42 1015.66 1015.95 1016.15 1016.39 1016.51 1016.66 1016.74 1016.86 1017.07 1017.15 1017.22 1017.27 1017.27 1017.34 1017.47 1017.54 1017.71 1017.86 1018.10 1018.34 1018.54 1018.66 1018.83 1018.83 1018.95 1019.15 1019.30 1019.34 1019.34 1019.39 1019.62 1019.86 1020.03 1020.15 1020.30 1020.34 1020.42 1020.66 1020.86 1020.98 1020.91 1020.83 1020.95 1020.91 1020.83 1020.71 1020.78 1020.83 1020.83 1021.03 1021.10 1021.39 1021.51 1021.51 1021.74 1022.07 1022.74 1023.10 1023.03 1022.59 1022.71 1022.74
1015.62 1015.83 1016.15 1016.27 1016.42 1016.54 1016.66 1016.74 1016.78 1016.95 1017.03 1017.10 1017.27 1017.18 1017.18 1017.39 1017.54 1017.71 1017.91 1018.10 1018.34 1018.54 1018.71 1018.83 1018.91 1019.07 1019.27 1019.34 1019.39 1019.51 1019.62 1019.78 1019.91 1020.03 1020.18 1020.30 1020.47 1020.62 1020.78 1021.03 1021.10 1021.07 1021.03 1021.15 1021.10 1021.03 1020.91 1020.91 1020.95 1020.98 1021.07 1021.15 1021.22 1021.47 1021.59 1021.66 1021.83 1022.03 1022.39 1022.98 1022.71 1022.59 1022.66
1015.86 1015.98 1016.15 1016.34 1016.42 1016.47 1016.59 1016.71 1016.71 1016.78 1016.91 1016.98 1016.98 1017.07 1017.22 1017.34 1017.62 1017.74 1017.95 1018.07 1018.27 1018.51 1018.66 1018.83 1018.98 1019.15 1019.30 1019.34 1019.47 1019.62 1019.78 1019.95 1020.03 1020.07 1020.07 1020.27 1020.42 1020.59 1020.83 1020.98 1021.07 1021.07 1021.15 1021.30 1021.30 1021.27 1021.15 1021.27 1021.30 1021.30 1021.10 1021.27 1021.30 1021.42 1021.62 1021.78 1021.91 1021.86 1022.18 1022.47 1022.59 1022.47 1022.42
1015.91 1016.03 1016.15 1016.30 1016.39 1016.39 1016.51 1016.59 1016.66 1016.62 1016.66 1016.95 1016.98 1017.10 1017.30 1017.47 1017.62 1017.78 1017.86 1017.91 1018.07 1018.30 1018.51 1018.74 1018.95 1019.10 1019.27 1019.42 1019.54 1019.66 1019.83 1019.95 1019.98 1020.07 1020.10 1020.22 1020.39 1020.54 1020.74 1020.86 1020.95 1021.07 1021.18 1021.34 1021.42 1021.39 1021.42 1021.42 1021.34 1021.47 1021.62 1021.71 1021.71 1021.74 1021.83 1021.86 1021.83 1021.91 1022.10 1022.30 1022.34 1022.54 1022.30
1015.86 1016.03 1016.18 1016.27 1016.34 1016.42 1016.51 1016.54 1016.62 1016.71 1016.62 1016.83 1017.07 1017.27 1017.34 1017.51 1017.59 1017.71 1017.83 1017.91 1017.98 1018.15 1018.39 1018.62 1018.78 1018.98 1019.15 1019.30 1019.51 1019.71 1019.83 1019.95 1020.07 1020.10 1020.22 1020.30 1020.39 1020.54 1020.62 1020.71 1020.86 1020.95 1021.15 1021.27 1021.42 1021.51 1021.54 1021.59 1021.66 1021.71 1021.74 1021.74 1021.78 1021.98 1022.07 1021.91 1021.95 1022.18 1022.34 1022.34 1022.22 1022.18 1022.34
1015.71 1015.91 1016.10 1016.18 1016.34 1016.42 1016.54 1016.66 1016.66 1016.62 1016.62 1016.83 1017.07 1017.30 1017.42 1017.51 1017.54 1017.62 1017.71 1017.86 1017.91 1018.03 1018.22 1018.47 1018.62 1018.86 1019.15 1019.30 1019.54 1019.74 1019.86 1020.07 1020.15 1020.22 1020.30 1020.27 1020.34 1020.62 1020.86 1020.86 1020.91 1021.10 1021.39 1021.54 1021.71 1021.71 1021.71 1021.86 1021.78 1021.86 1021.83 1021.83 1021.86 1022.03 1022.15 1022.07 1021.98 1022.15 1022.22 1022.27 1022.34 1022.30 1022.18
1015.54 1015.83 1016.07 1016.15 1016.27 1016.42 1016.59 1016.66 1016.71 1016.71 1016.74 1016.83 1016.95 1017.15 1017.30 1017.47 1017.59 1017.74 1017.71 1017.74 1017.83 1017.91 1018.15 1018.34 1018.51 1018.78 1019.10 1019.34 1019.59 1019.86 1019.98 1020.10 1020.18 1020.30 1020.34 1020.54 1020.91 1020.95 1021.03 1021.07 1021.22 1021.47 1021.59 1021.71 1021.78 1021.86 1021.95 1021.98 1022.03 1022.10 1021.98 1021.91 1021.98 1022.07 1022.10 1022.10 1022.15 1022.34 1022.42 1022.42 1022.47 1022.18 1022.10
1015.74 1015.91 1016.07 1016.18 1016.34 1016.51 1016.66 1016.78 1016.78 1016.83 1016.83 1016.86 1016.95 1017.07 1017.27 1017.39 1017.54 1017.74 1017.78 1017.74 1017.74 1017.83 1017.98 1018.15 1018.34 1018.54 1018.86 1019.18 1019.51 1019.74 1019.95 1020.03 1020.10 1020.30 1020.47 1020.86 1021.10 1021.03 1021.03 1021.07 1021.22 1021.34 1021.51 1021.62 1021.78 1021.91 1021.98 1022.03 1022.10 1022.10 1022.18 1022.18 1022.15 1022.18 1022.18 1022.27 1022.39 1022.42 1022.51 1022.59 1022.54 1022.34 1022.34
1016.07 1016.39 1016.34 1016.51 1016.62 1016.71 1016.78 1016.86 1016.91 1016.91 1016.95 1016.98 1017.10 1017.18 1017.34 1017.47 1017.51 1017.54 1017.62 1017.71 1017.74 1017.83 1017.95 1018.10 1018.42 1018.62 1018.86 1019.07 1019.30 1019.66 1019.91 1020.15 1020.34 1020.47 1020.54 1020.74 1021.07 1021.07 1021.07 1021.03 1021.03 1021.18 1021.30 1021.47 1021.54 1021.71 1021.91 1022.07 1022.15 1022.18 1022.30 1022.34 1022.39 1022.30 1022.34 1022.39 1022.34 1022.39 1022.51 1022.59 1022.34 1022.34 1022.54
1016.42 1016.59 1016.66 1016.71 1016.86 1016.95 1016.95 1017.03 1017.15 1017.18 1017.18 1017.27 1017.27 1017.30 1017.47 1017.54 1017.54 1017.54 1017.62 1017.71 1017.83 1017.95 1018.15 1018.51 1018.78 1018.91 1019.03 1019.15 1019.27 1019.51 1019.78 1020.07 1020.30 1020.51 1020.54 1020.71 1020.78 1020.91 1020.98 1021.03 1020.95 1020.91 1020.91 1021.03 1021.22 1021.47 1021.78 1022.18 1022.27 1022.34 1022.42 1022.47 1022.59 1022.66 1022.62 1022.54 1022.47 1022.42 1022.66 1022.71 1022.66 1022.62 1022.62
1016.71 1016.86 1017.07 1017.07 1017.03 1017.10 1017.18 1017.27 1017.39 1017.47 1017.47 1017.30 1017.34 1017.54 1017.62 1017.66 1017.71 1017.62 1017.74 1017.95 1018.15 1018.51 1019.15 1019.59 1019.07 1019.07 1019.07 1019.10 1019.22 1019.34 1019.59 1019.78 1020.07 1020.27 1020.30 1020.34 1020.42 1020.66 1020.86 1020.98 1021.03 1020.95 1020.71 1020.83 1021.15 1021.27 1021.54 1022.15 1022.39 1022.42 1022.51 1022.59 1022.66 1022.62 1022.59 1022.62 1022.59 1022.54 1022.54 1022.66 1022.78 1022.83 1022.98
1016.71 1016.71 1016.78 1017.07 1017.03 1017.18 1017.42 1017.51 1017.47 1017.54 1017.59 1017.51 1017.59 1017.71 1017.71 1017.78 1017.78 1017.83 1017.95 1018.15 1018.66 1019.34 1019.54 1019.98 1020.07 1019.62 1019.39 1019.34 1019.39 1019.42 1019.51 1019.71 1019.91 1020.07 1020.15 1020.22 1020.30 1020.47 1020.66 1020.78 1020.91 1020.83 1020.62 1020.71 1020.95 1021.18 1021.51 1021.95 1022.18 1022.27 1022.42 1022.42 1022.54 1022.71 1022.62 1022.59 1022.59 1022.54 1022.51 1022.62 1022.78 1022.91 1022.98
1017.03 1017.07 1016.98 1017.34 1017.34 1017.62 1017.98 1018.03 1017.98 1018.07 1018.10 1017.91 1017.71 1017.74 1017.74 1017.78 1017.83 1017.98 1018.18 1018.34 1018.71 1018.83 1018.74 1018.98 1019.27 1019.47 1019.34 1019.39 1019.62 1019.66 1019.71 1019.71 1019.86 1020.03 1020.07 1020.03 1020.03 1020.10 1020.27 1020.39 1020.47 1020.42 1020.42 1020.47 1020.74 1020.83 1021.07 1021.47 1021.78 1021.98 1022.10 1022.18 1022.39 1022.62 1022.78 1022.86 1022.86 1022.83 1022.66 1022.62 1022.71 1023.03 1023.30
1017.22 1017.22 1017.10 1017.22 1017.34 1017.42 1017.42 1017.47 1017.39 1017.39 1017.47 1017.47 1017.47 1017.42 1017.39 1017.47 1017.66 1017.83 1017.91 1018.07 1018.39 1018.95 1018.95 1018.66 1018.83 1019.22 1019.30 1019.39 1019.59 1019.74 1019.74 1019.74 1019.78 1019.86 1019.95 1019.95 1019.95 1019.91 1019.86 1019.98 1020.18 1020.22 1020.15 1020.47 1021.10 1021.07 1021.03 1021.15 1021.42 1021.71 1021.86 1022.03 1022.54 1022.86 1023.18 1023.59 1023.59 1023.34 1023.15 1023.15 1023.27 1023.39 1023.66
1018.03 1017.91 1017.83 1017.66 1017.51 1017.42 1017.18 1017.15 1017.15 1017.07 1017.22 1017.27 1017.42 1017.54 1017.51 1017.51 1017.42 1017.47 1017.54 1017.71 1017.98 1018.27 1018.51 1018.54 1018.62 1018.83 1019.15 1019.30 1019.54 1019.54 1019.59 1019.62 1019.66 1019.71 1019.78 1020.03 1020.07 1019.95 1019.86 1019.86 1019.98 1020.27 1020.34 1020.54 1021.22 1021.27 1021.10 1021.07 1021.22 1021.47 1021.62 1021.98 1022.39 1022.66 1023.10 1023.42 1023.54 1023.47 1023.42 1023.47 1023.54 1023.66 1023.78
1017.91 1017.91 1018.10 1018.10 1017.95 1017.78 1017.51 1017.22 1017.07 1016.83 1017.03 1017.18 1017.30 1017.34 1017.39 1017.42 1017.39 1017.30 1017.34 1017.39 1017.51 1017.83 1017.95 1018.15 1018.47 1018.71 1018.91 1019.03 1019.10 1019.22 1019.30 1019.39 1019.42 1019.54 1019.74 1019.95 1020.15 1020.27 1020.15 1020.07 1019.95 1020.27 1020.42 1020.86 1021.62 1021.34 1021.27 1021.03 1021.03 1021.15 1021.47 1021.83 1022.22 1022.66 1023.03 1023.27 1023.30 1023.51 1023.66 1023.71 1023.78 1023.86 1023.95
1018.18 1018.18 1018.27 1018.22 1018.07 1017.98 1017.78 1017.59 1017.34 1017.10 1016.95 1016.83 1016.83 1016.83 1016.95 1017.18 1017.22 1017.15 1017.10 1017.15 1017.22 1017.62 1017.74 1017.98 1018.27 1018.34 1018.62 1018.78 1019.10 1019.07 1018.98 1019.07 1019.22 1019.22 1019.42 1019.62 1020.03 1020.39 1020.34 1020.18 1019.95 1020.03 1020.34 1021.22 1021.62 1021.42 1021.22 1021.03 1020.91 1020.91 1021.18 1021.54 1021.95 1022.34 1022.74 1022.98 1023.15 1023.30 1023.54 1023.62 1023.71 1023.83 1023.86
1018.47 1018.47 1018.42 1018.34 1018.22 1018.10 1017.86 1017.71 1017.54 1017.39 1017.18 1016.98 1016.78 1016.62 1016.51 1016.47 1016.66 1016.95 1016.95 1017.07 1017.30 1017.42 1017.59 1017.62 1017.66 1017.83 1017.95 1018.18 1018.59 1018.71 1018.71 1018.83 1019.03 1019.03 1019.10 1019.30 1019.71 1020.18 1020.42 1020.42 1020.39 1020.27 1020.59 1021.10 1021.42 1021.39 1021.18 1020.98 1020.71 1020.66 1020.91 1021.30 1021.59 1022.07 1022.47 1022.74 1022.98 1023.15 1023.34 1023.39 1023.42 1023.59 1023.59
1018.86 1018.78 1018.66 1018.54 1018.39 1018.22 1018.07 1017.91 1017.66 1017.47 1017.30 1017.07 1016.91 1016.71 1016.54 1016.42 1016.39 1016.34 1016.47 1016.86 1016.95 1016.95 1017.03 1017.18 1017.15 1017.15 1017.47 1017.86 1018.30 1018.51 1018.47 1018.86 1018.95 1019.10 1019.39 1019.62 1019.71 1020.10 1020.59 1020.95 1021.27 1020.91 1020.39 1020.66 1021.18 1021.30 1021.18 1021.15 1021.15 1021.42 1021.62 1021.98 1022.27 1022.42 1022.42 1022.74 1022.95 1022.95 1023.03 1023.18 1023.22 1023.18 1023.18
1019.27 1019.15 1018.95 1018.78 1018.59 1018.34 1018.10 1017.86 1017.66 1017.47 1017.30 1017.07 1016.91 1016.71 1016.42 1016.27 1016.18 1016.10 1015.98 1016.07 1016.51 1017.03 1017.51 1017.30 1017.07 1017.03 1017.07 1017.54 1018.07 1018.66 1018.59 1018.62 1018.66 1019.03 1019.62 1020.07 1020.39 1020.59 1020.86 1021.42 1021.78 1021.86 1021.47 1021.10 1021.10 1021.39 1021.39 1021.39 1021.54 1021.78 1022.22 1022.30 1022.47 1022.39 1022.51 1022.66 1022.78 1022.98 1023.10 1023.10 1023.07 1023.03 1023.07
1019.47 1019.22 1019.03 1018.83 1018.59 1018.34 1018.15 1017.91 1017.71 1017.51 1017.30 1017.10 1016.91 1016.71 1016.47 1016.22 1016.03 1015.86 1015.71 1015.66 1015.74 1015.98 1016.27 1016.71 1016.78 1016.78 1016.98 1017.30 1018.03 1018.51 1018.34 1018.39 1018.39 1018.78 1019.47 1019.91 1020.10 1020.59 1021.42 1022.07 1022.30 1022.10 1021.83 1021.74 1021.62 1021.59 1021.47 1021.54 1021.78 1022.18 1022.34 1022.39 1022.54 1022.66 1022.66 1022.59 1022.59 1022.74 1022.83 1022.86 1022.86 1022.98 1023.07
1019.59 1019.47 1019.34 1019.15 1018.86 1018.54 1018.18 1017.86 1017.59 1017.34 1017.10 1016.95 1016.71 1016.51 1016.22 1015.91 1015.78 1015.62 1015.51 1015.39 1015.30 1015.34 1015.54 1015.91 1016.30 1016.30 1016.78 1017.42 1017.98 1018.18 1018.15 1018.51 1018.51 1018.74 1019.07 1019.42 1019.74 1020.42 1020.98 1021.66 1022.47 1022.91 1022.42 1021.78 1021.59 1021.74 1021.62 1021.62 1022.03 1022.34 1022.39 1022.51 1022.59 1022.62 1022.54 1022.51 1022.54 1022.71 1022.78 1022.83 1022.95 1023.07 1023.15
Wind_Speed
5 5 5 5 4 5 3 2 5 3 3 5 2 3 3 4 2 3 3 3 5 6 5 6 5 5 6 5 5 9 9 8 9 8 7 4 4 2 2 1 2 1 4 5 3 1 3 5 5 7 7 7 7 6 5 4 2 2 5 8 7 5 4
6 6 5 4 5 4 3 3 5 5 6 4 4 2 4 3 2 3 1 1 3 2 3 9 5 4 3 5 3 4 7 6 4 4 4 6 3 3 3 1 1 2 3 3 2 2 2 6 5 5 3 2 3 3 4 4 3 4 4 5 8 9 8
5 5 5 5 5 3 4 3 2 4 4 2 1 3 1 5 3 1 4 3 4 4 6 7 6 4 3 3 5 3 5 4 3 4 4 3 3 2 2 2 2 1 3 3 1 1 2 0 7 6 4 4 4 2 3 4 4 4 6 7 7 9 8
6 7 5 5 4 3 4 3 1 4 3 5 3 3 4 5 4 3 0 4 4 5 4 5 5 5 4 2 3 3 4 4 3 4 3 2 7 6 5 2 3 3 5 4 5 3 2 2 6 7 5 5 4 4 4 5 6 6 6 5 6 7 7
5 5 5 5 4 4 4 3 4 3 4 3 2 4 3 3 3 2 2 4 3 2 2 2 3 6 2 2 3 3 4 3 3 3 2 3 6 5 6 6 6 6 6 5 6 4 5 5 7 7 7 6 4 3 3 5 5 5 4 5 6 6 7
4 5 5 4 3 4 3 4 4 4 3 3 3 4 2 1 3 1 2 5 5 5 4 4 5 5 4 4 5 5 5 5 4 4 4 3 2 4 5 3 4 6 5 6 6 8 7 6 7 7 8 6 6 5 4 4 3 4 4 5 5 4 7
3 4 4 4 2 4 4 4 2 4 3 4 4 3 2 2 3 4 5 4 5 3 3 2 3 3 7 6 4 6 5 4 6 5 5 3 1 0 1 3 3 3 2 1 2 3 3 2 1 5 6 6 7 7 5 4 6 5 4 6 5 6 6
5 4 5 5 3 5 4 2 3 3 5 4 4 3 4 5 4 3 4 3 3 3 3 2 4 5 4 4 3 3 4 3 4 4 4 4 4 4 3 5 5 6 2 2 6 6 1 1 4 7 6 5 4 4 4 5 5 6 5 4 6 5 5
4 4 6 5 4 4 4 3 3 4 5 5 4 4 3 4 4 3 3 3 3 3 2 2 3 4 4 4 4 5 6 5 6 6 4 4 3 4 4 4 5 5 5 5 3 6 4 5 5 6 5 2 5 5 5 5 4 4 6 5 4 6 5
4 5 5 5 5 4 3 3 4 6 6 5 4 3 3 3 2 4 4 4 3 3 5 5 4 3 4 3 4 5 6 5 5 5 4 4 3 4 5 5 4 4 4 5 5 5 6 6 5 4 2 2 4 3 3 4 4 3 3 3 4 3 5
5 5 6 6 4 5 4 4 5 5 5 4 3 3 3 3 4 4 3 3 3 2 2 3 4 4 4 3 4 4 4 4 4 3 3 3 1 2 5 7 5 6 4 4 4 4 5 6 6 5 7 5 5 4 1 6 4 3 2 5 3 3 4
5 6 5 5 5 5 4 3 4 4 4 4 4 4 3 3 3 3 3 3 2 3 4 3 3 3 4 4 4 4 4 4 4 4 3 3 4 4 5 5 4 3 3 3 3 3 4 5 2 6 5 6 6 5 8 7 5 3 2 3 3 4 4
6 6 5 5 5 5 5 4 4 4 4 3 3 3 3 3 4 4 3 3 3 3 3 1 3 4 4 4 3 3 4 4 4 4 4 3 4 4 4 4 3 3 3 4 5 5 4 4 5 5 4 4 4 4 8 7 7 4 3 3 3 3 3
6 6 6 5 5 5 4 4 4 3 3 3 3 3 3 3 4 3 3 3 3 3 3 3 2 3 3 3 4 4 4 4 5 4 4 4 4 3 5 4 3 4 4 4 2 2 3 1 1 3 3 4 4 4 4 7 6 4 1 1 1 3 2
5 5 6 5 5 6 5 4 4 3 3 3 3 2 3 3 3 3 4 3 3 3 3 3 2 2 3 4 4 3 3 4 4 4 4 3 4 5 4 4 4 4 4 4 6 1 3 3 3 3 0 3 5 2 3 2 5 5 4 1 1 5 3
5 6 6 5 6 6 4 4 4 3 3 3 3 3 3 3 3 3 4 4 3 3 3 3 1 3 4 3 2 1 3 5 4 3 4 4 4 4 5 4 4 2 2 2 0 4 3 3 5 4 6 5 5 5 5 3 2 4 6 3 3 4 4
4 6 6 5 6 5 5 4 5 4 4 4 6 4 3 3 3 3 4 4 4 3 3 2 1 3 3 2 1 3 4 4 3 3 4 4 5 3 4 4 3 1 1 1 3 2 3 3 0 1 3 3 3 4 1 3 2 1 2 5 5 1 4
5 5 5 5 6 5 5 5 4 6 4 4 4 3 5 3 3 3 3 4 5 4 4 3 3 3 3 1 1 3 4 3 3 3 3 5 5 4 4 4 4 2 1 1 2 3 1 2 4 3 1 0 3 4 2 2 2 3 2 2 1 2 4
5 5 5 5 4 3 5 5 4 3 4 4 3 2 4 3 4 3 3 3 5 4 5 3 3 4 4 3 2 3 3 3 3 2 2 4 4 4 3 3 4 4 1 1 1 2 4 3 2 4 6 6 5 2 2 1 1 1 1 1 1 1 1
4 4 3 3 3 3 2 2 4 3 3 4 4 3 3 3 3 3 4 3 3 5 5 5 4 4 4 3 4 4 3 2 1 3 2 2 3 3 1 2 2 2 1 1 0 0 0 1 2 4 3 4 4 2 1 1 1 2 0 3 3 1 0
5 4 3 3 4 3 3 2 2 2 2 4 5 4 3 3 3 3 4 4 3 4 4 5 4 4 4 3 3 2 3 3 3 3 3 2 3 5 5 4 3 5 6 6 5 4 4 3 1 1 1 1 3 2 3 1 1 2 2 1 2 0 3
3 4 6 3 3 3 3 3 3 2 2 2 3 5 4 3 3 3 3 4 4 4 5 5 4 5 5 5 5 3 3 3 3 3 1 5 7 5 2 2 5 5 5 5 6 5 4 3 2 3 3 1 1 2 3 1 2 3 4 4 5 5 3
2 2 1 2 2 2 2 2 2 3 3 2 2 3 3 4 5 4 4 4 4 4 5 4 5 12 8 6 6 5 4 4 3 4 3 6 4 3 2 3 4 5 5 4 2 2 4 5 4 1 0 2 3 2 2 1 1 2 2 3 5 3 1
4 3 1 3 3 1 1 0 1 1 1 1 2 2 2 3 3 4 6 5 4 3 4 3 8 11 8 10 7 4 4 4 4 3 4 5 4 3 3 3 3 4 2 2 1 2 1 5 5 4 4 3 3 0 1 2 3 3 3 3 3 1 2
3 3 1 2 3 1 0 0 1 2 2 2 1 0 2 3 3 3 2 3 3 3 2 7 11 10 9 9 7 6 5 4 5 4 4 4 4 4 4 3 3 4 4 5 3 3 3 5 7 7 6 5 5 6 5 2 1 1 3 3 3 4 3
5 1 2 1 1 2 1 1 1 1 3 2 1 1 2 1 3 2 2 3 3 4 8 4 10 11 11 10 8 7 7 5 6 5 5 4 4 6 4 4 3 3 3 7 5 3 5 5 4 6 7 7 6 5 5 6 5 3 1 3 3 3 3
2 1 2 2 1 1 1 4 3 3 3 3 2 3 2 3 3 3 1 1 6 12 8 4 10 3 4 5 5 3 3 4 4 4 4 4 4 6 8 7 6 6 6 5 5 6 6 6 5 4 3 3 3 3 3 5 4 2 2 2 1 1 3
4 2 2 2 1 4 8 8 7 7 7 6 5 5 5 4 3 2 1 2 6 7 6 9 8 9 7 6 4 1 1 1 2 3 5 6 6 6 7 7 6 6 5 5 3 3 8 6 6 5 4 4 4 2 3 4 4 3 2 1 1 5 4
9 9 4 1 4 3 3 2 3 2 3 3 3 3 3 3 4 4 4 4 4 6 6 12 12 11 10 9 8 3 2 2 3 3 3 3 3 4 5 5 6 4 6 4 3 6 3 5 6 5 5 5 6 5 4 2 1 4 6 5 4 4 4
9 8 8 8 8 7 2 1 2 2 2 2 2 2 2 3 4 5 5 4 4 5 8 13 16 15 13 11 7 5 5 5 5 5 4 0 3 1 1 4 4 3 6 4 3 3 3 2 6 6 6 6 5 5 3 2 4 8 9 10 9 8 8
6 6 6 7 7 6 7 6 4 1 2 2 4 4 5 5 4 4 5 7 7 6 5 11 18 17 16 14 11 7 6 6 8 7 5 5 3 2 2 5 3 4 6 4 1 3 1 1 3 5 6 6 6 5 3 3 2 4 7 8 6 5 4
6 5 5 6 5 6 6 6 6 6 5 3 4 5 6 6 7 7 7 7 9 9 7 9 17 18 16 14 12 8 8 7 8 8 7 8 7 3 4 5 6 9 10 7 5 4 4 3 1 5 6 6 5 5 5 4 4 3 1 1 0 1 0
5 5 6 6 6 6 6 6 5 6 6 6 5 4 5 5 6 8 9 9 7 8 9 9 11 16 16 15 16 10 8 7 7 7 8 7 8 6 4 5 8 15 15 10 6 7 8 7 1 3 5 3 3 4 6 4 3 3 4 2 2 4 4
7 8 7 7 7 6 6 6 6 6 6 6 6 6 7 5 4 5 5 9 9 10 10 10 11 16 14 14 15 15 8 7 6 2 1 5 6 6 5 4 4 5 13 13 11 10 12 13 12 9 8 7 3 1 2 5 3 5 0 0 2 2 3
7 7 7 7 7 7 7 7 7 6 6 6 7 7 6 6 7 7 6 5 4 6 8 13 10 14 17 15 15 13 6 4 6 8 7 6 6 6 6 6 6 3 6 11 12 12 13 13 13 9 7 8 6 10 5 2 4 3 3 4 4 3 2
7 6 7 7 8 8 8 8 8 8 8 9 10 11 10 9 7 7 7 6 6 8 9 10 16 14 16 15 13 14 10 6 12 10 9 9 8 7 7 5 2 5 8 11 12 12 13 14 11 7 9 9 8 4 0 1 1 1 0 1 3 4 4
8 7 8 9 9 10 9 8 8 7 8 8 8 8 8 8 9 10 8 7 6 6 6 7 13 18 14 15 13 16 12 8 8 9 9 9 7 9 10 8 4 5 7 11 13 11 11 11 8 8 8 7 6 3 1 1 2 3 2 1 0 2 3
Wind_Direction
110 119 95 80 84 83 86 98 142 151 98 116 116 86 133 98 108 151 159 175 173 179 169 177 174 184 177 202 167 161 161 186 179 180 169 173 183 206 126 204 273 58 79 63 64 86 112 113 63 49 42 35 35 40 60 78 65 52 97 144 139 131 80
126 127 126 105 77 71 88 44 39 64 59 36 89 109 71 108 97 57 1 70 328 25 217 171 174 143 132 122 122 143 154 162 133 126 143 174 192 165 136 251 121 76 83 67 70 129 157 136 123 110 106 75 60 74 97 82 60 40 43 76 101 91 83
115 100 106 118 112 134 79 69 81 68 106 120 37 56 121 84 36 68 71 33 12 32 25 48 59 63 77 124 131 158 102 113 140 138 162 176 111 79 113 86 59 134 66 47 5 243 278 302 131 135 149 145 131 180 156 145 132 103 73 63 72 93 95
110 113 112 118 134 114 119 111 110 104 83 73 48 47 39 72 59 48 6 80 49 6 28 63 66 65 32 33 99 107 112 111 122 122 165 135 117 140 130 142 151 159 169 169 194 197 150 173 125 142 156 128 155 167 192 164 139 119 105 90 89 98 102
113 116 128 117 130 128 115 127 86 98 98 100 87 84 47 57 89 69 26 73 73 87 77 81 114 117 113 79 75 95 91 103 110 99 79 89 108 125 161 177 182 177 185 172 193 192 195 164 146 151 132 138 129 97 87 84 81 85 92 110 113 109 110
124 129 112 117 111 109 129 114 140 113 114 129 107 92 76 110 113 141 75 94 67 28 45 57 39 60 75 67 39 40 67 64 58 83 92 87 163 159 167 185 186 171 181 211 191 196 205 179 149 142 141 144 127 141 157 159 118 104 101 88 84 92 112
121 106 122 121 131 114 97 105 126 114 118 105 106 91 142 115 74 65 59 58 90 76 28 48 105 117 101 94 102 117 113 122 118 127 137 162 187 125 88 102 107 112 85 13 36 33 111 126 152 120 120 130 158 152 167 140 135 122 93 94 90 74 66
134 151 138 126 114 102 108 142 86 91 100 102 88 75 59 60 66 59 77 73 59 93 96 55 72 79 92 108 115 124 116 110 88 73 57 66 60 58 62 73 62 50 1 347 41 353 299 148 120 120 113 146 188 158 142 117 107 102 119 102 108 102 96
134 127 109 113 96 100 106 104 98 99 96 84 80 91 75 75 84 114 108 94 117 125 135 116 77 78 90 95 101 98 100 101 100 89 88 72 51 39 51 50 49 39 19 17 34 33 347 64 83 85 119 162 125 98 97 89 89 113 129 101 87 114 120
135 117 114 109 106 98 95 99 103 98 93 91 97 97 105 114 105 85 74 74 50 51 60 66 87 85 77 78 73 69 67 70 82 91 86 78 81 98 105 104 94 69 40 24 28 13 15 28 49 57 8 136 69 95 138 111 112 104 41 101 126 87 113
127 114 108 111 107 92 77 75 95 102 102 113 106 109 93 84 87 90 108 99 77 87 108 98 89 94 106 91 87 90 101 105 109 114 110 121 105 63 75 71 62 59 48 44 33 23 32 32 35 42 49 39 69 37 151 116 94 55 115 38 55 122 135
129 113 117 117 114 118 116 115 114 104 107 109 116 101 112 126 129 110 107 112 109 71 68 79 93 90 84 82 90 111 120 109 98 97 105 93 88 92 92 89 87 87 91 86 52 37 20 2 21 54 50 47 42 44 98 122 103 2 57 92 50 51 51
118 122 127 126 123 128 139 131 106 106 116 120 117 143 143 139 115 129 124 112 124 124 127 135 99 105 114 128 141 122 113 116 115 117 121 114 94 92 105 115 119 138 137 81 68 74 54 22 34 60 73 86 49 34 70 78 99 91 29 109 137 142 115
122 123 131 132 131 128 128 122 111 122 130 133 142 149 153 127 132 129 130 140 129 132 122 113 131 138 146 138 117 140 162 143 146 146 124 123 138 108 85 76 61 48 75 115 152 102 88 62 31 54 88 84 73 36 77 113 117 129 148 133 149 113 85
129 129 134 131 125 129 127 126 136 130 138 122 147 175 154 163 140 166 147 142 121 122 133 116 140 161 120 112 150 163 147 131 106 120 131 107 80 93 115 91 57 29 13 50 12 290 145 204 149 176 129 72 71 51 29 64 130 138 148 209 183 129 134
139 137 131 128 135 139 139 137 146 147 145 145 165 200 181 159 160 170 139 120 129 134 142 145 154 92 101 138 163 146 102 101 119 119 99 106 112 88 79 83 76 45 8 40 310 11 355 26 12 45 70 62 56 35 36 52 62 120 157 183 181 175 149
150 142 135 140 146 146 151 157 159 164 172 168 185 210 159 154 172 162 131 142 141 150 132 132 122 109 141 158 137 90 94 106 119 127 135 141 114 119 111 111 101 79 37 22 10 29 344 10 343 96 93 104 108 113 93 16 328 169 137 147 240 125 158
160 158 149 157 164 163 153 159 183 172 177 180 169 186 127 173 162 173 154 158 146 155 140 157 148 139 137 140 134 109 126 139 165 165 162 125 142 123 136 132 146 131 147 77 16 324 66 35 1 340 50 139 168 131 129 103 348 16 71 94 132 129 184
163 162 159 158 168 157 153 166 178 177 163 171 155 174 140 180 175 176 167 187 153 160 146 165 164 166 153 167 150 146 153 163 182 152 101 108 126 125 155 140 139 141 139 59 193 15 14 9 10 9 15 8 53 78 25 78 158 127 74 1 72 195 138
158 150 153 155 158 157 138 161 157 197 166 167 144 187 162 183 170 188 170 204 169 159 158 171 179 163 161 175 150 177 136 125 130 98 99 125 112 100 114 100 89 87 103 116 82 101 28 13 11 357 351 339 19 44 255 228 25 40 318 228 211 168 90
148 149 154 176 164 170 152 172 215 199 186 162 156 171 193 204 167 214 177 190 193 166 170 171 181 155 173 164 148 143 126 160 168 134 170 156 108 68 48 37 42 59 59 45 28 17 46 15 2 227 280 354 333 348 323 313 82 312 294 339 319 233 190
126 136 162 191 157 146 144 172 203 224 210 185 155 172 173 199 184 207 228 186 198 172 185 178 182 171 174 165 160 166 169 180 170 122 119 82 70 91 83 35 45 53 72 83 86 88 73 56 25 12 342 326 267 279 293 9 14 348 340 342 308 281 250
125 77 155 136 164 161 154 210 211 209 205 182 170 174 201 189 193 194 231 214 201 188 181 180 186 171 174 166 169 173 174 188 145 141 161 103 109 123 147 99 94 72 37 25 46 109 118 87 76 81 57 4 0 347 288 215 240 254 274 272 265 296 330
114 146 139 46 33 64 144 132 301 274 252 191 183 173 227 265 225 205 202 230 211 197 184 150 146 164 168 174 161 168 149 121 117 120 128 133 135 174 163 172 149 130 140 196 207 232 85 125 111 118 96 86 80 63 4 297 192 230 262 271 290 7 58
104 57 41 144 141 104 82 114 338 339 313 280 257 208 192 245 269 250 254 254 231 197 171 124 131 135 140 161 164 156 153 156 158 161 174 155 171 172 174 172 189 182 173 181 194 192 135 118 125 113 108 113 101 80 84 82 8 55 51 7 354 4 42
63 120 122 19 80 104 340 316 267 291 301 293 310 300 274 237 253 248 235 268 315 5 29 37 128 145 143 138 140 148 177 169 165 186 194 186 186 168 174 187 203 219 208 196 213 219 155 133 106 111 116 100 83 83 98 73 64 82 58 63 13 25 63
88 27 105 143 278 46 12 292 264 246 250 258 229 238 234 238 262 285 294 359 61 80 100 309 318 24 126 147 144 154 179 172 176 186 202 194 195 168 179 187 194 202 204 177 180 219 154 154 144 132 144 157 121 109 118 120 113 96 103 87 44 24 69
76 217 65 36 270 197 202 213 216 213 226 225 208 211 215 203 214 241 317 76 108 132 160 175 207 228 195 176 131 212 334 300 165 216 212 209 183 191 185 188 196 201 192 190 172 176 148 150 152 157 163 163 143 129 67 45 30 7 6 35 52 67 62
12 359 358 199 209 202 233 228 233 197 198 203 189 221 219 177 201 205 208 181 169 142 197 214 216 224 213 188 159 163 220 241 236 228 227 199 191 195 196 178 186 211 165 132 108 104 95 150 157 162 168 140 103 92 80 61 26 50 66 69 66 73 87
4 354 354 339 348 346 313 174 232 217 235 207 168 189 226 206 208 211 199 176 180 181 181 209 218 220 218 197 166 193 200 217 229 235 213 291 257 264 127 166 173 116 93 90 356 43 84 185 161 171 151 128 122 111 114 134 85 67 76 84 92 96 98
353 354 343 334 345 338 338 335 327 268 222 219 212 211 214 224 232 230 218 209 206 202 202 193 207 215 213 198 192 200 211 222 231 227 166 194 186 136 83 47 360 139 121 92 256 83 331 300 178 150 137 132 133 126 133 146 129 66 67 67 72 87 93
331 336 324 327 330 326 325 323 321 329 314 274 236 223 207 206 222 231 225 223 207 204 217 188 190 206 209 207 200 214 215 223 231 229 185 183 173 172 100 54 68 125 116 141 143 99 60 32 274 154 143 147 151 158 156 156 130 121 145 146 145 138 125
335 335 327 319 322 317 315 314 301 301 306 301 300 283 252 241 215 205 219 228 219 217 218 219 211 204 207 205 197 202 211 212 229 218 193 185 156 147 111 108 102 114 113 103 87 87 63 56 9 133 134 142 151 133 136 128 126 154 166 191 168 181 201
332 326 320 317 314 308 301 293 294 284 288 288 281 283 285 282 261 241 190 177 214 224 224 224 226 228 218 205 197 201 198 227 244 302 148 181 158 145 139 107 76 69 111 116 111 89 79 71 73 76 81 85 94 199 114 124 116 101 125 252 275 248 248
324 316 303 293 291 284 279 280 279 287 281 281 283 276 269 259 257 251 238 196 183 197 233 229 219 222 222 205 197 191 183 166 142 127 103 81 73 62 57 52 66 8 80 103 100 92 88 85 83 83 84 94 73 61 60 103 148 182 182 205 218 219 212
310 310 307 303 296 287 284 284 281 279 275 266 263 264 265 267 263 257 244 240 223 210 188 191 198 203 210 202 181 179 180 149 134 122 127 127 134 117 97 102 127 152 129 109 102 103 99 92 82 93 96 74 69 48 328 226 117 100 41 5 40 23 349
308 306 307 309 307 304 299 289 279 275 273 271 274 270 266 257 248 251 246 228 222 210 191 184 197 191 189 189 170 172 179 162 118 127 142 150 141 128 139 138 136 176 130 108 96 87 88 92 105 100 79 72 54 53 7 328 172 192 179 123 119 244 248